Location: Anna District 4 Election Precinct
(37.4833°N, 89.2195°W)
Time: 14:00:18
(UTC+00:00)

CZ-2D R/B - Pass Details

Date: 29 October 2020
Orbit: 522 x 537 km, 97.4° (Epoch: 03 December)

Event Time Altitude Azimuth Distance (km) Brightness Sun altitude
Rises 23:40:00 0° 140° (SE) 2,649 6.5 -8.3°
Reaches altitude 10° 23:42:21 10° 127° (SE) 1,762 5.5 -8.7°
Maximum altitude 23:45:30 25° 71° (ENE) 1,081 4.2 -9.3°
Drops below altitude 10° 23:48:40 10° 15° (NNE) 1,768 5.7 -10.0°
Sets 23:51:01 0° 2° (N) 2,659 6.7 -10.4°
